owner,sensor,date,latitude,longitude,vertical_datum,wind_speed,wind_to_direction,wind_speed_of_gust,qcFlag 
DISL,ioos:station:DISL:MBLA:1,2014-05-01T00:00:00Z,30.4367,-88.0117,14.2,7.84,259.7,-9999.0,'1111122,1111122,1111122' 
DISL,ioos:station:DISL:MBLA:1,2014-05-01T00:30:00Z,30.4367,-88.0117,14.2,9.77,272.5,-9999.0,'1111122,1111122,1111122' 
DISL,ioos:station:DISL:MBLA:1,2014-05-01T01:00:00Z,30.4367,-88.0117,14.2,7.28,273.6,-9999.0,'1111122,1111122,1111122' 
DISL,ioos:station:DISL:MBLA:1,2014-05-01T01:30:00Z,30.4367,-88.0117,14.2,6.18,279.3,-9999.0,'1111122,1111122,1111122' 
DISL,ioos:station:DISL:MBLA:1,2014-05-01T02:00:00Z,30.4367,-88.0117,14.2,6.87,271.7,-9999.0,'1111122,1111122,1111122' 
DISL,ioos:station:DISL:MBLA:1,2014-05-01T02:30:00Z,30.4367,-88.0117,14.2,10.67,277.5,-9999.0,'1111122,1111122,1111122' 
DISL,ioos:station:DISL:MBLA:1,2014-05-01T03:00:00Z,30.4367,-88.0117,14.2,11.74,310.8,-9999.0,'1111122,1111122,1111122' 
DISL,ioos:station:DISL:MBLA:1,2014-05-01T03:30:00Z,30.4367,-88.0117,14.2,8.13,338.6,-9999.0,'1111122,1111122,1111122' 
DISL,ioos:station:DISL:MBLA:1,2014-05-01T04:00:00Z,30.4367,-88.0117,14.2,7.58,357.1,-9999.0,'1111122,1111122,1111122' 
DISL,ioos:station:DISL:MBLA:1,2014-05-01T04:30:00Z,30.4367,-88.0117,14.2,8.04,343.0,-9999.0,'1111122,1111122,1111122' 
DISL,ioos:station:DISL:MBLA:1,2014-05-01T05:00:00Z,30.4367,-88.0117,14.2,8.12,338.0,-9999.0,'1111122,1111122,1111122' 
DISL,ioos:station:DISL:MBLA:1,2014-05-01T05:30:00Z,30.4367,-88.0117,14.2,7.8,329.4,-9999.0,'1111122,1111122,1111122' 
DISL,ioos:station:DISL:MBLA:1,2014-05-01T06:00:00Z,30.4367,-88.0117,14.2,8.09,339.7,-9999.0,'1111122,1111122,1111122' 
DISL,ioos:station:DISL:MBLA:1,2014-05-01T06:30:00Z,30.4367,-88.0117,14.2,7.2,348.8,-9999.0,'1111122,1111122,1111122' 
DISL,ioos:station:DISL:MBLA:1,2014-05-01T07:00:00Z,30.4367,-88.0117,14.2,9.13,357.1,-9999.0,'1111122,1111122,1111122' 
DISL,ioos:station:DISL:MBLA:1,2014-05-01T07:30:00Z,30.4367,-88.0117,14.2,10.61,345.2,-9999.0,'1111122,1111122,1111122' 
DISL,ioos:station:DISL:MBLA:1,2014-05-01T08:00:00Z,30.4367,-88.0117,14.2,11.58,349.0,-9999.0,'1111122,1111122,1111122' 
DISL,ioos:station:DISL:MBLA:1,2014-05-01T08:30:00Z,30.4367,-88.0117,14.2,11.01,350.1,-9999.0,'1111122,1111122,1111122' 
DISL,ioos:station:DISL:MBLA:1,2014-05-01T09:00:00Z,30.4367,-88.0117,14.2,11.53,346.8,-9999.0,'1111122,1111122,1111122' 
DISL,ioos:station:DISL:MBLA:1,2014-05-01T09:30:00Z,30.4367,-88.0117,14.2,11.41,357.6,-9999.0,'1111122,1111122,1111122' 
DISL,ioos:station:DISL:MBLA:1,2014-05-01T10:00:00Z,30.4367,-88.0117,14.2,12.32,0.972,-9999.0,'1111122,1111122,1111122' 
DISL,ioos:station:DISL:MBLA:1,2014-05-01T10:30:00Z,30.4367,-88.0117,14.2,12.36,352.2,-9999.0,'1111122,1111122,1111122' 
DISL,ioos:station:DISL:MBLA:1,2014-05-01T11:00:00Z,30.4367,-88.0117,14.2,11.77,1.274,-9999.0,'1111122,1111122,1111122' 
DISL,ioos:station:DISL:MBLA:1,2014-05-01T11:30:00Z,30.4367,-88.0117,14.2,12.83,6.155,-9999.0,'1111122,1111122,1111122' 
DISL,ioos:station:DISL:MBLA:1,2014-05-01T12:00:00Z,30.4367,-88.0117,14.2,12.76,353.8,-9999.0,'1111122,1111122,1111122' 
DISL,ioos:station:DISL:MBLA:1,2014-05-01T12:30:00Z,30.4367,-88.0117,14.2,11.66,357.2,-9999.0,'1111122,1111122,1111122' 
DISL,ioos:station:DISL:MBLA:1,2014-05-01T13:00:00Z,30.4367,-88.0117,14.2,10.9,1.431,-9999.0,'1111122,1111122,1111122' 
DISL,ioos:station:DISL:MBLA:1,2014-05-01T13:30:00Z,30.4367,-88.0117,14.2,10.81,8.48,-9999.0,'1111122,1111122,1111122' 
DISL,ioos:station:DISL:MBLA:1,2014-05-01T14:00:00Z,30.4367,-88.0117,14.2,10.8,350.5,-9999.0,'1111122,1111122,1111122' 
DISL,ioos:station:DISL:MBLA:1,2014-05-01T14:30:00Z,30.4367,-88.0117,14.2,9.94,2.67,-9999.0,'1111122,1111122,1111122' 
DISL,ioos:station:DISL:MBLA:1,2014-05-01T15:00:00Z,30.4367,-88.0117,14.2,10.06,0.053,-9999.0,'1111122,1111122,1111122' 
DISL,ioos:station:DISL:MBLA:1,2014-05-01T15:30:00Z,30.4367,-88.0117,14.2,8.26,3.606,-9999.0,'1111122,1111122,1111122' 
DISL,ioos:station:DISL:MBLA:1,2014-05-01T16:00:00Z,30.4367,-88.0117,14.2,7.59,3.563,-9999.0,'1111122,1111122,1111122' 
DISL,ioos:station:DISL:MBLA:1,2014-05-01T16:30:00Z,30.4367,-88.0117,14.2,7.56,5.808,-9999.0,'1111122,1111122,1111122' 
DISL,ioos:station:DISL:MBLA:1,2014-05-01T17:00:00Z,30.4367,-88.0117,14.2,6.29,14.24,-9999.0,'1111122,1111122,1111122' 
DISL,ioos:station:DISL:MBLA:1,2014-05-01T17:30:00Z,30.4367,-88.0117,14.2,4.65,13.42,-9999.0,'1111122,1111122,1111122' 
DISL,ioos:station:DISL:MBLA:1,2014-05-01T18:00:00Z,30.4367,-88.0117,14.2,4.54,2.556,-9999.0,'1111122,1111122,1111122' 
DISL,ioos:station:DISL:MBLA:1,2014-05-01T18:30:00Z,30.4367,-88.0117,14.2,4.32,11.12,-9999.0,'1111122,1111122,1111122' 
DISL,ioos:station:DISL:MBLA:1,2014-05-01T19:00:00Z,30.4367,-88.0117,14.2,3.41,24.11,-9999.0,'1111122,1111122,1111122' 
DISL,ioos:station:DISL:MBLA:1,2014-05-01T19:30:00Z,30.4367,-88.0117,14.2,3.2,31.73,-9999.0,'1111122,1111122,1111122' 
DISL,ioos:station:DISL:MBLA:1,2014-05-01T20:00:00Z,30.4367,-88.0117,14.2,2.34,64.55,-9999.0,'1111122,1111122,1111122' 
DISL,ioos:station:DISL:MBLA:1,2014-05-01T20:30:00Z,30.4367,-88.0117,14.2,1.62,104.3,-9999.0,'1111122,1111122,1111122' 
DISL,ioos:station:DISL:MBLA:1,2014-05-01T21:00:00Z,30.4367,-88.0117,14.2,0.59,107.8,-9999.0,'1111122,1111122,1111122' 
DISL,ioos:station:DISL:MBLA:1,2014-05-01T21:30:00Z,30.4367,-88.0117,14.2,0.67,133.3,-9999.0,'1111122,1111122,1111122' 
DISL,ioos:station:DISL:MBLA:1,2014-05-01T22:00:00Z,30.4367,-88.0117,14.2,1.41,157.4,-9999.0,'1111122,1111122,1111122' 
DISL,ioos:station:DISL:MBLA:1,2014-05-01T22:30:00Z,30.4367,-88.0117,14.2,0.2,348.2,-9999.0,'1111122,1111122,1111122' 
DISL,ioos:station:DISL:MBLA:1,2014-05-01T23:00:00Z,30.4367,-88.0117,14.2,0.87,163.9,-9999.0,'1111122,1111122,1111122' 
DISL,ioos:station:DISL:MBLA:1,2014-05-01T23:30:00Z,30.4367,-88.0117,14.2,1.97,186.8,-9999.0,'1111122,1111122,1111122' 
DISL,ioos:station:DISL:MBLA:1,2014-05-02T00:00:00Z,30.4367,-88.0117,14.2,4.11,215.8,-9999.0,'1111122,1111122,1111122' 
DISL,ioos:station:DISL:MBLA:1,2014-05-02T00:30:00Z,30.4367,-88.0117,14.2,4.14,243.3,-9999.0,'1111122,1111122,1111122' 
DISL,ioos:station:DISL:MBLA:1,2014-05-02T01:00:00Z,30.4367,-88.0117,14.2,5.93,270.6,-9999.0,'1111122,1111122,1111122' 
DISL,ioos:station:DISL:MBLA:1,2014-05-02T01:30:00Z,30.4367,-88.0117,14.2,6.17,269.6,-9999.0,'1111122,1111122,1111122' 
DISL,ioos:station:DISL:MBLA:1,2014-05-02T02:00:00Z,30.4367,-88.0117,14.2,7.8,273.4,-9999.0,'1111122,1111122,1111122' 
DISL,ioos:station:DISL:MBLA:1,2014-05-02T02:30:00Z,30.4367,-88.0117,14.2,6.8,283.9,-9999.0,'1111122,1111122,1111122' 
DISL,ioos:station:DISL:MBLA:1,2014-05-02T03:00:00Z,30.4367,-88.0117,14.2,6.57,277.4,-9999.0,'1111122,1111122,1111122' 
DISL,ioos:station:DISL:MBLA:1,2014-05-02T03:30:00Z,30.4367,-88.0117,14.2,6.4,271.6,-9999.0,'1111122,1111122,1111122' 
DISL,ioos:station:DISL:MBLA:1,2014-05-02T04:00:00Z,30.4367,-88.0117,14.2,5.7,247.7,-9999.0,'1111122,1111122,1111122' 
DISL,ioos:station:DISL:MBLA:1,2014-05-02T04:30:00Z,30.4367,-88.0117,14.2,5.04,261.2,-9999.0,'1111122,1111122,1111122' 
DISL,ioos:station:DISL:MBLA:1,2014-05-02T05:00:00Z,30.4367,-88.0117,14.2,3.83,289.9,-9999.0,'1111122,1111122,1111122' 
DISL,ioos:station:DISL:MBLA:1,2014-05-02T05:30:00Z,30.4367,-88.0117,14.2,1.91,268.8,-9999.0,'1111122,1111122,1111122' 
DISL,ioos:station:DISL:MBLA:1,2014-05-02T06:00:00Z,30.4367,-88.0117,14.2,2.19,314.9,-9999.0,'1111122,1111122,1111122' 
DISL,ioos:station:DISL:MBLA:1,2014-05-02T06:30:00Z,30.4367,-88.0117,14.2,3.01,321.2,-9999.0,'1111122,1111122,1111122' 
DISL,ioos:station:DISL:MBLA:1,2014-05-02T07:00:00Z,30.4367,-88.0117,14.2,5.23,327.2,-9999.0,'1111122,1111122,1111122' 
DISL,ioos:station:DISL:MBLA:1,2014-05-02T07:30:00Z,30.4367,-88.0117,14.2,4.24,330.3,-9999.0,'1111122,1111122,1111122' 
DISL,ioos:station:DISL:MBLA:1,2014-05-02T08:00:00Z,30.4367,-88.0117,14.2,4.55,352.7,-9999.0,'1111122,1111122,1111122' 
DISL,ioos:station:DISL:MBLA:1,2014-05-02T08:30:00Z,30.4367,-88.0117,14.2,2.81,18.63,-9999.0,'1111122,1111122,1111122' 
DISL,ioos:station:DISL:MBLA:1,2014-05-02T09:00:00Z,30.4367,-88.0117,14.2,2.9,52.35,-9999.0,'1111122,1111122,1111122' 
DISL,ioos:station:DISL:MBLA:1,2014-05-02T09:30:00Z,30.4367,-88.0117,14.2,3.03,54.27,-9999.0,'1111122,1111122,1111122' 
DISL,ioos:station:DISL:MBLA:1,2014-05-02T10:00:00Z,30.4367,-88.0117,14.2,3.6,53.94,-9999.0,'1111122,1111122,1111122' 
DISL,ioos:station:DISL:MBLA:1,2014-05-02T10:30:00Z,30.4367,-88.0117,14.2,4.02,24.3,-9999.0,'1111122,1111122,1111122' 
DISL,ioos:station:DISL:MBLA:1,2014-05-02T11:00:00Z,30.4367,-88.0117,14.2,5.21,32.67,-9999.0,'1111122,1111122,1111122' 
DISL,ioos:station:DISL:MBLA:1,2014-05-02T11:30:00Z,30.4367,-88.0117,14.2,5.43,51.25,-9999.0,'1111122,1111122,1111122' 
DISL,ioos:station:DISL:MBLA:1,2014-05-02T12:00:00Z,30.4367,-88.0117,14.2,4.32,37.12,-9999.0,'1111122,1111122,1111122' 
DISL,ioos:station:DISL:MBLA:1,2014-05-02T12:30:00Z,30.4367,-88.0117,14.2,4.34,55.73,-9999.0,'1111122,1111122,1111122' 
DISL,ioos:station:DISL:MBLA:1,2014-05-02T13:00:00Z,30.4367,-88.0117,14.2,4.56,61.5,-9999.0,'1111122,1111122,1111122' 
DISL,ioos:station:DISL:MBLA:1,2014-05-02T13:30:00Z,30.4367,-88.0117,14.2,2.53,71.77,-9999.0,'1111122,1111122,1111122' 
DISL,ioos:station:DISL:MBLA:1,2014-05-02T14:00:00Z,30.4367,-88.0117,14.2,0.44,90.3,-9999.0,'1111122,1111122,1111122' 
DISL,ioos:station:DISL:MBLA:1,2014-05-02T14:30:00Z,30.4367,-88.0117,14.2,1.42,356.4,-9999.0,'1111122,1111122,1111122' 
DISL,ioos:station:DISL:MBLA:1,2014-05-02T15:00:00Z,30.4367,-88.0117,14.2,1.93,15.47,-9999.0,'1111122,1111122,1111122' 
DISL,ioos:station:DISL:MBLA:1,2014-05-02T15:30:00Z,30.4367,-88.0117,14.2,0.85,322.0,-9999.0,'1111122,1111122,1111122' 
DISL,ioos:station:DISL:MBLA:1,2014-05-02T16:00:00Z,30.4367,-88.0117,14.2,0.37,314.1,-9999.0,'1111122,1111122,1111122' 
DISL,ioos:station:DISL:MBLA:1,2014-05-02T16:30:00Z,30.4367,-88.0117,14.2,0.73,347.4,-9999.0,'1111122,1111122,1111122' 
DISL,ioos:station:DISL:MBLA:1,2014-05-02T17:00:00Z,30.4367,-88.0117,14.2,0.0,0.0,-9999.0,'1114422,1114422,1111122' 
DISL,ioos:station:DISL:MBLA:1,2014-05-02T17:30:00Z,30.4367,-88.0117,14.2,0.31,170.0,-9999.0,'1111122,1111122,1111122' 
DISL,ioos:station:DISL:MBLA:1,2014-05-02T18:00:00Z,30.4367,-88.0117,14.2,1.51,359.0,-9999.0,'1111122,1111122,1111122' 
DISL,ioos:station:DISL:MBLA:1,2014-05-02T18:30:00Z,30.4367,-88.0117,14.2,1.67,7.294,-9999.0,'1111122,1111122,1111122' 
DISL,ioos:station:DISL:MBLA:1,2014-05-02T19:00:00Z,30.4367,-88.0117,14.2,0.76,36.97,-9999.0,'1111122,1111122,1111122' 
DISL,ioos:station:DISL:MBLA:1,2014-05-02T19:30:00Z,30.4367,-88.0117,14.2,1.76,21.32,-9999.0,'1111122,1111122,1111122' 
DISL,ioos:station:DISL:MBLA:1,2014-05-02T20:00:00Z,30.4367,-88.0117,14.2,2.31,39.59,-9999.0,'1111122,1111122,1111122' 
DISL,ioos:station:DISL:MBLA:1,2014-05-02T20:30:00Z,30.4367,-88.0117,14.2,3.18,63.93,-9999.0,'1111122,1111122,1111122' 
DISL,ioos:station:DISL:MBLA:1,2014-05-02T21:00:00Z,30.4367,-88.0117,14.2,0.47,71.28,-9999.0,'1111122,1111122,1111122' 
DISL,ioos:station:DISL:MBLA:1,2014-05-02T21:30:00Z,30.4367,-88.0117,14.2,5.65,204.9,-9999.0,'1111122,1111122,1111122' 
DISL,ioos:station:DISL:MBLA:1,2014-05-02T22:00:00Z,30.4367,-88.0117,14.2,6.43,226.6,-9999.0,'1111122,1111122,1111122' 
DISL,ioos:station:DISL:MBLA:1,2014-05-02T22:30:00Z,30.4367,-88.0117,14.2,8.44,231.7,-9999.0,'1111122,1111122,1111122' 
DISL,ioos:station:DISL:MBLA:1,2014-05-02T23:00:00Z,30.4367,-88.0117,14.2,6.59,229.5,-9999.0,'1111122,1111122,1111122' 
DISL,ioos:station:DISL:MBLA:1,2014-05-02T23:30:00Z,30.4367,-88.0117,14.2,5.7,240.4,-9999.0,'1111122,1111122,1111122' 
DISL,ioos:station:DISL:MBLA:1,2014-05-03T00:00:00Z,30.4367,-88.0117,14.2,5.78,226.6,-9999.0,'1111122,1111122,1111122' 
DISL,ioos:station:DISL:MBLA:1,2014-05-03T00:30:00Z,30.4367,-88.0117,14.2,5.82,236.1,-9999.0,'1111122,1111122,1111122' 
DISL,ioos:station:DISL:MBLA:1,2014-05-03T01:00:00Z,30.4367,-88.0117,14.2,5.74,238.4,-9999.0,'1111122,1111122,1111122' 
DISL,ioos:station:DISL:MBLA:1,2014-05-03T01:30:00Z,30.4367,-88.0117,14.2,5.05,263.0,-9999.0,'1111122,1111122,1111122' 
DISL,ioos:station:DISL:MBLA:1,2014-05-03T02:00:00Z,30.4367,-88.0117,14.2,5.53,279.0,-9999.0,'1111122,1111122,1111122' 
DISL,ioos:station:DISL:MBLA:1,2014-05-03T02:30:00Z,30.4367,-88.0117,14.2,6.45,286.8,-9999.0,'1111122,1111122,1111122' 
DISL,ioos:station:DISL:MBLA:1,2014-05-03T03:00:00Z,30.4367,-88.0117,14.2,5.79,298.8,-9999.0,'1111122,1111122,1111122' 
DISL,ioos:station:DISL:MBLA:1,2014-05-03T03:30:00Z,30.4367,-88.0117,14.2,4.41,329.2,-9999.0,'1111122,1111122,1111122' 
DISL,ioos:station:DISL:MBLA:1,2014-05-03T04:00:00Z,30.4367,-88.0117,14.2,3.97,344.4,-9999.0,'1111122,1111122,1111122' 
DISL,ioos:station:DISL:MBLA:1,2014-05-03T04:30:00Z,30.4367,-88.0117,14.2,2.59,355.8,-9999.0,'1111122,1111122,1111122' 
DISL,ioos:station:DISL:MBLA:1,2014-05-03T05:00:00Z,30.4367,-88.0117,14.2,2.99,10.8,-9999.0,'1111122,1111122,1111122' 
DISL,ioos:station:DISL:MBLA:1,2014-05-03T05:30:00Z,30.4367,-88.0117,14.2,3.32,342.4,-9999.0,'1111122,1111122,1111122' 
DISL,ioos:station:DISL:MBLA:1,2014-05-03T06:00:00Z,30.4367,-88.0117,14.2,3.39,336.0,-9999.0,'1111122,1111122,1111122' 
DISL,ioos:station:DISL:MBLA:1,2014-05-03T06:30:00Z,30.4367,-88.0117,14.2,3.9,322.6,-9999.0,'1111122,1111122,1111122' 
DISL,ioos:station:DISL:MBLA:1,2014-05-03T07:00:00Z,30.4367,-88.0117,14.2,5.07,329.6,-9999.0,'1111122,1111122,1111122' 
DISL,ioos:station:DISL:MBLA:1,2014-05-03T07:30:00Z,30.4367,-88.0117,14.2,3.75,325.3,-9999.0,'1111122,1111122,1111122' 
DISL,ioos:station:DISL:MBLA:1,2014-05-03T08:00:00Z,30.4367,-88.0117,14.2,3.02,311.1,-9999.0,'1111122,1111122,1111122' 
DISL,ioos:station:DISL:MBLA:1,2014-05-03T08:30:00Z,30.4367,-88.0117,14.2,3.79,325.0,-9999.0,'1111122,1111122,1111122' 
DISL,ioos:station:DISL:MBLA:1,2014-05-03T09:00:00Z,30.4367,-88.0117,14.2,3.05,339.8,-9999.0,'1111122,1111122,1111122' 
DISL,ioos:station:DISL:MBLA:1,2014-05-03T09:30:00Z,30.4367,-88.0117,14.2,3.87,344.0,-9999.0,'1111122,1111122,1111122' 
DISL,ioos:station:DISL:MBLA:1,2014-05-03T10:00:00Z,30.4367,-88.0117,14.2,3.74,346.9,-9999.0,'1111122,1111122,1111122' 
DISL,ioos:station:DISL:MBLA:1,2014-05-03T10:30:00Z,30.4367,-88.0117,14.2,3.8,345.9,-9999.0,'1111122,1111122,1111122' 
DISL,ioos:station:DISL:MBLA:1,2014-05-03T11:00:00Z,30.4367,-88.0117,14.2,4.91,337.1,-9999.0,'1111122,1111122,1111122' 
DISL,ioos:station:DISL:MBLA:1,2014-05-03T11:30:00Z,30.4367,-88.0117,14.2,4.58,343.0,-9999.0,'1111122,1111122,1111122' 
DISL,ioos:station:DISL:MBLA:1,2014-05-03T12:00:00Z,30.4367,-88.0117,14.2,4.17,326.0,-9999.0,'1111122,1111122,1111122' 
DISL,ioos:station:DISL:MBLA:1,2014-05-03T12:30:00Z,30.4367,-88.0117,14.2,4.33,326.8,-9999.0,'1111122,1111122,1111122' 
DISL,ioos:station:DISL:MBLA:1,2014-05-03T13:00:00Z,30.4367,-88.0117,14.2,4.13,321.3,-9999.0,'1111122,1111122,1111122' 
DISL,ioos:station:DISL:MBLA:1,2014-05-03T13:30:00Z,30.4367,-88.0117,14.2,4.12,309.8,-9999.0,'1111122,1111122,1111122' 
DISL,ioos:station:DISL:MBLA:1,2014-05-03T14:00:00Z,30.4367,-88.0117,14.2,3.83,315.7,-9999.0,'1111122,1111122,1111122' 
DISL,ioos:station:DISL:MBLA:1,2014-05-03T14:30:00Z,30.4367,-88.0117,14.2,3.01,314.3,-9999.0,'1111122,1111122,1111122' 
DISL,ioos:station:DISL:MBLA:1,2014-05-03T15:00:00Z,30.4367,-88.0117,14.2,3.38,315.2,-9999.0,'1111122,1111122,1111122' 
DISL,ioos:station:DISL:MBLA:1,2014-05-03T15:30:00Z,30.4367,-88.0117,14.2,2.81,313.0,-9999.0,'1111122,1111122,1111122' 
DISL,ioos:station:DISL:MBLA:1,2014-05-03T16:00:00Z,30.4367,-88.0117,14.2,1.22,332.0,-9999.0,'1111122,1111122,1111122' 
DISL,ioos:station:DISL:MBLA:1,2014-05-03T16:30:00Z,30.4367,-88.0117,14.2,0.06,48.81,-9999.0,'1111122,1111122,1111122' 
DISL,ioos:station:DISL:MBLA:1,2014-05-03T17:00:00Z,30.4367,-88.0117,14.2,1.34,136.9,-9999.0,'1111122,1111122,1111122' 
DISL,ioos:station:DISL:MBLA:1,2014-05-03T17:30:00Z,30.4367,-88.0117,14.2,1.37,130.2,-9999.0,'1111122,1111122,1111122' 
DISL,ioos:station:DISL:MBLA:1,2014-05-03T18:00:00Z,30.4367,-88.0117,14.2,3.24,163.3,-9999.0,'1111122,1111122,1111122' 
DISL,ioos:station:DISL:MBLA:1,2014-05-03T18:30:00Z,30.4367,-88.0117,14.2,3.16,160.5,-9999.0,'1111122,1111122,1111122' 
DISL,ioos:station:DISL:MBLA:1,2014-05-03T19:00:00Z,30.4367,-88.0117,14.2,2.48,182.2,-9999.0,'1111122,1111122,1111122' 
DISL,ioos:station:DISL:MBLA:1,2014-05-03T19:30:00Z,30.4367,-88.0117,14.2,5.27,191.5,-9999.0,'1111122,1111122,1111122' 
DISL,ioos:station:DISL:MBLA:1,2014-05-03T20:00:00Z,30.4367,-88.0117,14.2,7.47,207.2,-9999.0,'1111122,1111122,1111122' 
DISL,ioos:station:DISL:MBLA:1,2014-05-03T20:30:00Z,30.4367,-88.0117,14.2,7.76,203.6,-9999.0,'1111122,1111122,1111122' 
DISL,ioos:station:DISL:MBLA:1,2014-05-03T21:00:00Z,30.4367,-88.0117,14.2,7.64,202.9,-9999.0,'1111122,1111122,1111122' 
DISL,ioos:station:DISL:MBLA:1,2014-05-03T21:30:00Z,30.4367,-88.0117,14.2,6.8,197.7,-9999.0,'1111122,1111122,1111122' 
DISL,ioos:station:DISL:MBLA:1,2014-05-03T22:00:00Z,30.4367,-88.0117,14.2,8.04,212.4,-9999.0,'1111122,1111122,1111122' 
DISL,ioos:station:DISL:MBLA:1,2014-05-03T22:30:00Z,30.4367,-88.0117,14.2,7.18,209.4,-9999.0,'1111122,1111122,1111122' 
DISL,ioos:station:DISL:MBLA:1,2014-05-03T23:00:00Z,30.4367,-88.0117,14.2,6.55,204.8,-9999.0,'1111122,1111122,1111122' 
DISL,ioos:station:DISL:MBLA:1,2014-05-03T23:30:00Z,30.4367,-88.0117,14.2,6.12,226.3,-9999.0,'1111122,1111122,1111122' 
DISL,ioos:station:DISL:MBLA:1,2014-05-04T00:00:00Z,30.4367,-88.0117,14.2,6.64,232.9,-9999.0,'1111122,1111122,1111122' 
DISL,ioos:station:DISL:MBLA:1,2014-05-04T00:30:00Z,30.4367,-88.0117,14.2,6.98,240.5,-9999.0,'1111122,1111122,1111122' 
DISL,ioos:station:DISL:MBLA:1,2014-05-04T01:00:00Z,30.4367,-88.0117,14.2,6.36,238.3,-9999.0,'1111122,1111122,1111122' 
DISL,ioos:station:DISL:MBLA:1,2014-05-04T01:30:00Z,30.4367,-88.0117,14.2,4.46,240.2,-9999.0,'1111122,1111122,1111122' 
DISL,ioos:station:DISL:MBLA:1,2014-05-04T02:00:00Z,30.4367,-88.0117,14.2,5.53,234.5,-9999.0,'1111122,1111122,1111122' 
DISL,ioos:station:DISL:MBLA:1,2014-05-04T02:30:00Z,30.4367,-88.0117,14.2,5.31,236.3,-9999.0,'1111122,1111122,1111122' 
DISL,ioos:station:DISL:MBLA:1,2014-05-04T03:00:00Z,30.4367,-88.0117,14.2,6.64,235.7,-9999.0,'1111122,1111122,1111122' 
DISL,ioos:station:DISL:MBLA:1,2014-05-04T03:30:00Z,30.4367,-88.0117,14.2,6.37,232.8,-9999.0,'1111122,1111122,1111122' 
DISL,ioos:station:DISL:MBLA:1,2014-05-04T04:00:00Z,30.4367,-88.0117,14.2,6.38,228.3,-9999.0,'1111122,1111122,1111122' 
DISL,ioos:station:DISL:MBLA:1,2014-05-04T04:30:00Z,30.4367,-88.0117,14.2,6.51,231.9,-9999.0,'1111122,1111122,1111122' 
DISL,ioos:station:DISL:MBLA:1,2014-05-04T05:00:00Z,30.4367,-88.0117,14.2,6.13,228.3,-9999.0,'1111122,1111122,1111122' 
DISL,ioos:station:DISL:MBLA:1,2014-05-04T05:30:00Z,30.4367,-88.0117,14.2,5.54,231.7,-9999.0,'1111122,1111122,1111122' 
DISL,ioos:station:DISL:MBLA:1,2014-05-04T06:00:00Z,30.4367,-88.0117,14.2,5.28,228.1,-9999.0,'1111122,1111122,1111122' 
DISL,ioos:station:DISL:MBLA:1,2014-05-04T06:30:00Z,30.4367,-88.0117,14.2,5.45,228.3,-9999.0,'1111122,1111122,1111122' 
DISL,ioos:station:DISL:MBLA:1,2014-05-04T07:00:00Z,30.4367,-88.0117,14.2,4.65,232.9,-9999.0,'1111122,1111122,1111122' 
DISL,ioos:station:DISL:MBLA:1,2014-05-04T07:30:00Z,30.4367,-88.0117,14.2,4.22,245.0,-9999.0,'1111122,1111122,1111122' 
DISL,ioos:station:DISL:MBLA:1,2014-05-04T08:00:00Z,30.4367,-88.0117,14.2,5.14,255.4,-9999.0,'1111122,1111122,1111122' 
DISL,ioos:station:DISL:MBLA:1,2014-05-04T08:30:00Z,30.4367,-88.0117,14.2,7.26,283.1,-9999.0,'1111122,1111122,1111122' 
DISL,ioos:station:DISL:MBLA:1,2014-05-04T09:00:00Z,30.4367,-88.0117,14.2,8.55,294.7,-9999.0,'1111122,1111122,1111122' 
DISL,ioos:station:DISL:MBLA:1,2014-05-04T09:30:00Z,30.4367,-88.0117,14.2,8.35,303.0,-9999.0,'1111122,1111122,1111122' 
DISL,ioos:station:DISL:MBLA:1,2014-05-04T10:00:00Z,30.4367,-88.0117,14.2,7.67,303.7,-9999.0,'1111122,1111122,1111122' 
DISL,ioos:station:DISL:MBLA:1,2014-05-04T10:30:00Z,30.4367,-88.0117,14.2,6.92,306.6,-9999.0,'1111122,1111122,1111122' 
DISL,ioos:station:DISL:MBLA:1,2014-05-04T11:00:00Z,30.4367,-88.0117,14.2,5.27,329.1,-9999.0,'1111122,1111122,1111122' 
DISL,ioos:station:DISL:MBLA:1,2014-05-04T11:30:00Z,30.4367,-88.0117,14.2,3.49,336.5,-9999.0,'1111122,1111122,1111122' 
DISL,ioos:station:DISL:MBLA:1,2014-05-04T12:00:00Z,30.4367,-88.0117,14.2,3.5,349.8,-9999.0,'1111122,1111122,1111122' 
DISL,ioos:station:DISL:MBLA:1,2014-05-04T12:30:00Z,30.4367,-88.0117,14.2,3.8,319.4,-9999.0,'1111122,1111122,1111122' 
DISL,ioos:station:DISL:MBLA:1,2014-05-04T13:00:00Z,30.4367,-88.0117,14.2,3.05,311.3,-9999.0,'1111122,1111122,1111122' 
DISL,ioos:station:DISL:MBLA:1,2014-05-04T13:30:00Z,30.4367,-88.0117,14.2,3.59,331.0,-9999.0,'1111122,1111122,1111122' 
DISL,ioos:station:DISL:MBLA:1,2014-05-04T14:00:00Z,30.4367,-88.0117,14.2,1.65,346.0,-9999.0,'1111122,1111122,1111122' 
DISL,ioos:station:DISL:MBLA:1,2014-05-04T14:30:00Z,30.4367,-88.0117,14.2,1.84,7.916,-9999.0,'1111122,1111122,1111122' 
DISL,ioos:station:DISL:MBLA:1,2014-05-04T15:00:00Z,30.4367,-88.0117,14.2,2.02,22.75,-9999.0,'1111122,1111122,1111122' 
DISL,ioos:station:DISL:MBLA:1,2014-05-04T15:30:00Z,30.4367,-88.0117,14.2,1.72,41.74,-9999.0,'1111122,1111122,1111122' 
DISL,ioos:station:DISL:MBLA:1,2014-05-04T16:00:00Z,30.4367,-88.0117,14.2,0.86,84.2,-9999.0,'1111122,1111122,1111122' 
DISL,ioos:station:DISL:MBLA:1,2014-05-04T16:30:00Z,30.4367,-88.0117,14.2,2.3,181.1,-9999.0,'1111122,1111122,1111122' 
DISL,ioos:station:DISL:MBLA:1,2014-05-04T17:00:00Z,30.4367,-88.0117,14.2,4.09,188.6,-9999.0,'1111122,1111122,1111122' 
DISL,ioos:station:DISL:MBLA:1,2014-05-04T17:30:00Z,30.4367,-88.0117,14.2,3.69,189.1,-9999.0,'1111122,1111122,1111122' 
DISL,ioos:station:DISL:MBLA:1,2014-05-04T18:00:00Z,30.4367,-88.0117,14.2,3.57,181.0,-9999.0,'1111122,1111122,1111122' 
DISL,ioos:station:DISL:MBLA:1,2014-05-04T18:30:00Z,30.4367,-88.0117,14.2,3.27,169.8,-9999.0,'1111122,1111122,1111122' 
DISL,ioos:station:DISL:MBLA:1,2014-05-04T19:00:00Z,30.4367,-88.0117,14.2,4.49,180.0,-9999.0,'1111122,1111122,1111122' 
DISL,ioos:station:DISL:MBLA:1,2014-05-04T19:30:00Z,30.4367,-88.0117,14.2,5.79,198.2,-9999.0,'1111122,1111122,1111122' 
DISL,ioos:station:DISL:MBLA:1,2014-05-04T20:00:00Z,30.4367,-88.0117,14.2,7.21,213.2,-9999.0,'1111122,1111122,1111122' 
DISL,ioos:station:DISL:MBLA:1,2014-05-04T20:30:00Z,30.4367,-88.0117,14.2,7.45,214.0,-9999.0,'1111122,1111122,1111122' 
DISL,ioos:station:DISL:MBLA:1,2014-05-04T21:00:00Z,30.4367,-88.0117,14.2,7.92,219.3,-9999.0,'1111122,1111122,1111122' 
DISL,ioos:station:DISL:MBLA:1,2014-05-04T21:30:00Z,30.4367,-88.0117,14.2,7.6,216.3,-9999.0,'1111122,1111122,1111122' 
DISL,ioos:station:DISL:MBLA:1,2014-05-04T22:00:00Z,30.4367,-88.0117,14.2,7.44,217.5,-9999.0,'1111122,1111122,1111122' 
DISL,ioos:station:DISL:MBLA:1,2014-05-04T22:30:00Z,30.4367,-88.0117,14.2,7.46,214.8,-9999.0,'1111122,1111122,1111122' 
DISL,ioos:station:DISL:MBLA:1,2014-05-04T23:00:00Z,30.4367,-88.0117,14.2,7.39,216.2,-9999.0,'1111122,1111122,1111122' 
DISL,ioos:station:DISL:MBLA:1,2014-05-04T23:30:00Z,30.4367,-88.0117,14.2,7.18,221.9,-9999.0,'1111122,1111122,1111122' 
DISL,ioos:station:DISL:MBLA:1,2014-05-05T00:00:00Z,30.4367,-88.0117,14.2,5.62,229.7,-9999.0,'1111122,1111122,1111122' 
DISL,ioos:station:DISL:MBLA:1,2014-05-05T00:30:00Z,30.4367,-88.0117,14.2,6.52,238.7,-9999.0,'1111122,1111122,1111122' 
DISL,ioos:station:DISL:MBLA:1,2014-05-05T01:00:00Z,30.4367,-88.0117,14.2,6.17,230.7,-9999.0,'1111122,1111122,1111122' 
DISL,ioos:station:DISL:MBLA:1,2014-05-05T01:30:00Z,30.4367,-88.0117,14.2,6.06,228.0,-9999.0,'1111122,1111122,1111122' 
DISL,ioos:station:DISL:MBLA:1,2014-05-05T02:00:00Z,30.4367,-88.0117,14.2,6.01,227.6,-9999.0,'1111122,1111122,1111122' 
DISL,ioos:station:DISL:MBLA:1,2014-05-05T02:30:00Z,30.4367,-88.0117,14.2,6.19,227.7,-9999.0,'1111122,1111122,1111122' 
DISL,ioos:station:DISL:MBLA:1,2014-05-05T03:00:00Z,30.4367,-88.0117,14.2,6.63,227.2,-9999.0,'1111122,1111122,1111122' 
DISL,ioos:station:DISL:MBLA:1,2014-05-05T03:30:00Z,30.4367,-88.0117,14.2,6.48,228.7,-9999.0,'1111122,1111122,1111122' 